Location: ?????????
(52.8177°N, 53.6483°E)
Time: 10:23:46
(UTC+00:00)

Daily predictions for brighter satellites

Satellite Brightness Start Highest point End
(mag) Time Altitude Azimuth Time Altitude Azimuth Time Altitude Azimuth
Cosmos 1603 3.9 14:58:11 10° NNW 15:03:54 78° WSW 15:09:31 10° SSE
Abrixas rocket 3.4 15:03:46 10° SW 15:06:03 22° SSE 15:08:22 10° ESE
Timation 1 Rocket 4.3 15:00:53 10° SSW 15:06:49 73° ESE 15:12:48 10° NE
USA 116 3.6 15:04:41 10° NNE 15:07:55 48° ESE 15:11:28 10° S
GP-B 3.4 15:03:50 10° N 15:08:17 74° W 15:12:43 10° S
SKYMED 2 4.2 15:05:56 10° N 15:10:15 64° WNW 15:14:33 10° SSW
Cosmos 1867 3.6 15:04:58 10° NW 15:10:30 79° NE 15:15:58 10° SE
CSL-04 Rocket 3.7 15:06:25 10° SSE 15:11:52 88° ENE 15:17:25 10° NNW
Cosmos 1898 Rocket 3.6 15:07:06 10° S 15:12:08 56° ESE 15:17:14 10° NNE
Cosmos 1437 2.5 15:09:45 10° NNW 15:12:47 83° ENE 15:15:46 10° SSE
USA 229 DEB 4.2 15:08:15 10° WSW 15:14:48 64° NW 15:21:50 10° NE
USA 229 4.2 15:08:20 10° WSW 15:14:54 64° NW 15:21:55 10° NE
YAOGAN 1 3.2 15:11:03 10° S 15:15:21 61° WSW 15:19:40 10° NNW
NOSS 3-2 (C) 4.3 15:09:00 10° NW 15:15:53 54° NNE 15:23:48 10° ESE
NOSS 2-3 (C) 4.4 15:15:21 10° WSW 15:19:46 62° NW 15:25:16 10° NE
Okean 2 3.8 15:16:38 10° NNW 15:20:48 69° W 15:24:56 10° S
Cosmos 2233 Rocket 4.0 15:16:02 10° S 15:22:17 88° E 15:28:30 10° N
Cosmos 1536 Rocket 4.4 15:18:22 10° N 15:22:21 31° ENE 15:26:19 10° SE
HJ-1C 3.5 15:21:50 10° S 15:25:07 77° WSW 15:28:27 10° NNW
Meteor 2-11 Rocket 4.4 15:19:44 10° S 15:25:53 79° E 15:32:04 10° NNE
NOSS 3-1 (A) 3.9 15:21:15 10° WSW 15:26:56 65° NW 15:33:45 10° NE
Nadezhda 4 Rocket 4.3 15:22:15 10° N 15:28:05 43° ENE 15:33:53 10° SE
Cosmos 807 4.4 15:26:08 10° S 15:29:17 68° E 15:33:04 10° NNE
Cosmos 1626 4.2 15:31:36 10° NE 15:33:10 12° ENE 15:34:13 11° ENE
Cosmos 1782 Rocket 3.5 15:31:30 10° S 15:35:54 86° ESE 15:40:24 10° NNE
Cosmos 2082 Rocket 4.1 15:33:00 10° NNW 15:36:34 17° NNE 15:40:08 10° ENE
Cosmos 1025 Rocket 3.2 15:32:44 10° N 15:37:02 52° ENE 15:41:18 10° SSE
Cosmos 2151 Rocket 4.4 15:33:24 10° SSE 15:37:15 29° E 15:41:08 10° NNE
Cosmos 1908 Rocket 4.4 15:33:56 10° SSW 15:38:13 55° WNW 15:42:33 10° N
NOSS 8 (H) 4.3 15:36:42 10° SSW 15:39:41 47° SE 15:42:39 10° NE
NOSS 8 (E) 4.0 15:36:40 10° SW 15:39:47 79° SE 15:42:51 10° NE
Cosmos 1975 3.2 15:35:45 10° SSW 15:39:49 70° WNW 15:43:55 10° N
CZ-4 R/B 3.6 15:36:09 10° SSW 15:39:54 31° W 15:43:40 10° NNW
Cosmos 1937 Rocket 3.4 15:36:48 10° SSW 15:42:01 72° ESE 15:47:14 10° NNE
CREW DRAGON DEMO-1 DEB 2.8 15:39:15 10° W 15:42:16 72° S 15:44:13 20° E
NOSS 2-2 (E) 3.7 15:39:39 10° S 15:42:54 35° SE 15:46:36 10° ENE
MOS 1 Rocket 3.1 15:39:28 10° NNE 15:44:03 71° ESE 15:48:22 10° S
Cosmos 2297 Rocket 4.4 15:41:35 10° W 15:46:16 26° NW 15:50:58 10° NNE
BREEZE-M DEB (TANK) 3.7 15:43:55 10° W 15:46:40 35° S 15:52:03 13° SE
USA 186 1.6 15:46:18 10° SSE 15:49:24 82° E 15:52:41 10° NNW
NOSS 2-2 (D) 3.8 15:48:07 10° S 15:51:19 33° ESE 15:54:55 10° ENE
In-Cosmos 22 4.0 15:46:02 10° N 15:51:21 75° ENE 15:56:41 10° SSE
Cosmos 1975 Rocket 4.1 15:52:06 10° NNW 15:56:16 46° W 16:00:25 10° SSW
OBJECT-B 1.3 15:55:00 23° SE 15:56:34 40° ENE 15:59:39 10° N
CENTAUR R/B 3.2 15:49:41 10° NW 15:57:24 70° NE 16:04:11 18° ESE
Cosmos 1674 3.2 15:54:20 10° N 15:58:00 40° ENE 16:00:03 22° SE
CZ-2C R/B 2.8 15:54:39 10° NNE 16:00:03 53° E 16:05:30 10° S
ARGOS 3.6 15:54:55 10° S 16:00:14 62° WSW 16:05:35 10° NNW
H-2A R/B 3.0 15:56:05 10° S 16:00:51 47° W 16:05:46 10° NNW
ATLAS 3B R/B 3.4 15:56:53 10° NW 16:03:17 42° NNE 16:08:20 17° E
MOS 1 4.3 15:58:55 10° SSE 16:04:37 87° ENE 16:10:23 10° NNW
USA 238 DEB 3.9 15:57:43 10° NW 16:04:54 90° ENE 16:10:44 18° SE
USA 238 3.9 15:57:49 10° NW 16:05:00 89° NE 16:10:49 18° SE
FREGAT/IRIS 2.1 16:03:38 22° SSE 16:05:08 87° WSW 16:07:45 10° NNW
Resurs 01 Rocket 2.2 16:04:07 23° ESE 16:06:20 38° ENE 16:10:28 10° N
Cosmos 1048 Rocket 4.0 16:04:08 10° NNW 16:09:28 82° ENE 16:13:37 17° SSE
Cosmos 1707 3.5 16:06:05 10° NNW 16:09:51 53° W 16:13:36 10° S
Lacrosse 4 Rocket 3.5 16:08:49 10° NNW 16:11:19 15° NNE 16:13:18 12° ENE
Cosmos 1844 4.4 16:07:02 10° SSE 16:11:53 30° ESE 16:16:42 10° NE
Sich 1 Rocket 4.0 16:09:03 10° SSW 16:13:32 69° WNW 16:18:06 10° N
SJ-6B 2.8 16:10:31 11° S 16:14:04 74° WSW 16:17:51 10° NNW
Cosmos 1513 Rocket 4.5 16:08:33 10° S 16:14:51 89° ESE 16:21:04 10° N
KORONAS-FOTON 3.9 16:11:16 10° N 16:15:10 59° ENE 16:17:04 28° SE
Cosmos 2263 Rocket 2.6 16:11:18 10° SW 16:16:50 65° NW 16:22:26 10° NNE
ATLAS CENTAUR R/B 3.7 16:17:49 10° WNW 16:20:33 18° NNW 16:23:14 10° NNE
Cosmos 1766 4.2 16:23:00 29° ENE 16:23:00 29° ENE 16:26:04 10° NNE
Cosmos 1464 Rocket 4.0 16:16:44 10° S 16:22:52 85° WNW 16:29:06 10° N
ARIANE 5 R/B 3.4 16:22:36 30° E 16:23:40 34° ENE 16:27:37 10° N
Cosmos 1844 Rocket 2.9 16:18:56 10° S 16:24:08 42° ESE 16:29:24 10° NE
SWAS 4.4 16:20:04 10° NNW 16:24:24 75° NE 16:26:10 35° SE
IGS 5A 4.4 16:24:13 28° E 16:24:49 29° ENE 16:28:26 10° N
Cosmos 1092 Rocket 3.9 16:20:21 10° N 16:26:31 68° ENE 16:30:55 20° SSE
Spot 2 Rocket 4.2 16:27:44 29° E 16:29:14 35° ENE 16:33:48 10° N
Cosmos 2195 Rocket 4.5 16:23:42 10° N 16:29:59 65° ENE 16:33:57 23° SSE
SJ 16-02 4.0 16:26:55 10° WSW 16:30:22 22° NW 16:33:50 10° N
NOSS 3-2 (A) 4.2 16:25:54 10° NW 16:33:12 68° SW 16:39:07 21° SSE
Okean 2 Rocket 3.5 16:29:26 10° SSW 16:33:54 66° WNW 16:38:23 10° N
Cosmos 2026 Rocket 4.1 16:27:54 10° N 16:34:11 62° ENE 16:37:47 27° SSE
Meteor 1-12 Rocket 4.5 16:28:17 10° SSW 16:34:12 76° WNW 16:40:03 10° N
Meteor 1-15 Rocket 4.2 16:29:29 10° S 16:35:02 65° E 16:40:43 10° NNE
NOSS 2-2 (C) 3.0 16:32:12 10° SW 16:35:44 79° SE 16:39:54 10° NE
Ariane Rocket 3.9 16:31:03 10° S 16:35:56 48° W 16:40:53 10° NNW
Meteor 2-13 Rocket 4.4 16:30:14 10° N 16:36:27 82° ENE 16:40:52 20° SSE
ISS -1.9 16:33:51 10° SW 16:35:14 20° SSW 16:35:14 20° SSW
Okean 1 Rocket 3.2 16:37:05 36° SSE 16:38:35 54° E 16:42:59 10° NNE
Abrixas rocket 3.5 16:38:18 10° WSW 16:39:57 25° SW 16:39:57 25° SW
Lacrosse 5 rocket 2.2 16:37:12 10° W 16:41:28 51° N 16:44:00 24° ENE
Cosmos 1833 Rocket 3.4 16:37:11 10° NNW 16:42:31 40° NE 16:44:24 31° E
Cosmos 494 Rocket 4.0 16:37:39 10° NNW 16:42:56 83° WSW 16:45:32 31° SSE
GRACE-FO 1 4.5 16:40:23 10° N 16:44:09 81° E 16:44:55 54° SSE
GRACE-FO 2 4.5 16:40:46 10° N 16:44:31 81° E 16:45:16 55° SSE
Cosmos 2298 Rocket 3.9 16:39:50 10° SSW 16:45:10 82° ESE 16:50:32 10° NNE
SPOT 3 Rocket 3.6 16:42:19 23° S 16:45:34 79° WSW 16:50:45 10° NNW
Resurs 1-3 3.8 16:43:10 25° S 16:45:40 69° WSW 16:50:04 10° NNW
Cosmos 1428 Rocket 4.4 16:40:22 10° N 16:46:41 70° ENE 16:49:48 31° SSE
Cosmos 1300 Rocket 4.5 16:43:17 10° SSW 16:47:35 50° WNW 16:51:55 10° N
CZ-2C R/B 3.6 16:43:27 10° NNE 16:47:52 59° ESE 16:49:02 44° SSE
BREEZE-M DEB (TANK) 4.5 16:46:32 10° SW 16:50:45 56° SE 17:07:24 10° ENE
USA 234 3.4 16:45:04 10° ENE 16:51:24 49° SE 16:57:43 10° SW
Cosmos 2279 Rocket 4.4 16:51:44 37° ESE 16:52:50 40° E 16:58:36 10° NNE
NOSS 5 (C) 4.4 16:54:10 10° NW 16:56:55 71° WNW 16:56:55 71° WNW
Terra 3.1 17:01:26 26° ENE 17:01:26 26° ENE 17:05:19 10° N
Meteor 2-5 Rocket 3.8 16:57:11 10° NNW 17:02:48 78° W 17:05:36 31° S
Cosmos 1892 Rocket 3.5 17:01:27 10° N 17:05:45 64° ENE 17:05:45 64° ENE
NOSS 3-2 (C) 4.2 16:59:56 10° NW 17:07:15 66° SW 17:11:18 32° SSE
Exosat Rocket 3.4 17:03:21 10° SSW 17:08:47 74° ESE 17:13:47 10° NNE
Cosmos 1626 2.2 17:05:16 10° NNW 17:08:46 75° NW 17:08:46 75° NW
CARTOSAT-1 4.3 17:15:16 41° NE 17:15:16 41° NE 17:18:49 10° N
Cosmos 2150 Rocket 4.4 17:10:04 10° SW 17:15:26 68° WNW 17:20:54 10° NNE
Meteor 1-22 Rocket 4.2 17:18:34 44° S 17:20:32 76° E 17:26:36 10° NNE
SPOT 5 3.3 17:21:41 50° ENE 17:21:49 50° ENE 17:26:56 10° N
Cosmos 2082 Rocket 2.7 17:16:45 10° NNW 17:22:09 45° NE 17:22:53 43° ENE
Cosmos 1805 4.1 17:25:30 44° WSW 17:26:09 49° WNW 17:29:59 10° N
Cosmos 1125 Rocket 3.6 17:21:14 10° SSW 17:26:33 77° WNW 17:31:54 10° NNE
OBJECT-B 3.4 17:28:11 15° WSW 17:29:07 16° W 17:31:17 10° NW
COSMOS 2406 3.1 17:23:42 10° NNW 17:29:26 89° WSW 17:30:13 68° SSE
Meteor 1-24 Rocket 4.0 17:24:49 10° NNW 17:30:12 62° W 17:31:59 41° SSW
Okean 1-7 Rocket 3.7 17:27:33 10° N 17:31:48 76° N 17:31:48 76° N
Cosmos 2266 Rocket 3.9 17:30:08 10° N 17:36:08 58° ENE 17:36:26 57° E
ERS-1 Rocket 2.9 17:37:23 70° NE 17:37:23 70° NE 17:42:14 10° NNW
ATLAS 2AS CENTAUR R/B 3.1 17:37:35 51° SE 17:37:56 52° ESE 17:45:28 10° NE
CRYOSAT 2 4.5 17:33:02 10° N 17:37:56 72° W 17:38:34 63° SW
CZ-2C R/B 4.4 17:35:18 10° N 17:40:09 33° WNW 17:45:04 10° WSW
SL-14 R/B 4.4 17:37:19 10° NNW 17:40:43 41° W 17:40:43 41° W
Cosmos 1655 Rocket 3.9 17:35:31 10° N 17:41:49 79° E 17:42:37 67° SE
Cosmos 2098 Rocket 4.0 17:34:26 10° N 17:41:49 77° ENE 17:42:57 63° SE
Cosmos 1733 4.3 17:42:25 43° NW 17:42:25 43° NW 17:45:41 10° N
Resurs 01 Rocket 3.1 17:41:42 27° SW 17:42:54 31° W 17:46:54 10° NNW
Meteor 1-21 Rocket 4.3 17:38:39 10° N 17:44:17 63° ENE 17:44:17 63° ENE
Landsat 7 4.2 17:46:54 54° WSW 17:47:08 55° W 17:51:50 10° NNW
CENTAUR R/B 3.8 17:40:32 10° NW 17:48:08 48° WSW 17:51:21 34° S
Lacrosse 4 Rocket 2.6 17:46:52 10° NNW 17:49:36 37° N 17:49:36 37° N
Cosmos 909 Rocket 3.9 17:45:38 10° NW 17:52:25 77° NE 17:53:07 69° E
SPOT 1/Viking Rocket 3.7 17:53:08 61° WSW 17:53:24 62° WSW 17:58:33 10° NNW
Cosmos 1634 Rocket 4.4 17:49:46 24° SW 17:53:33 58° WNW 17:59:41 10° N
ATLAS 3B R/B 2.6 17:47:45 10° NW 17:54:35 84° SW 17:55:34 68° SSE
Cosmos 1844 4.1 17:50:04 10° SW 17:55:42 62° NW 18:01:19 10° NNE
Cosmos 2278 Rocket 3.8 17:58:55 23° NE 17:58:55 23° NE 18:01:06 10° NE
Cosmos 2285 Rocket 4.4 17:52:34 10° SW 17:58:48 61° WNW 18:05:08 10° NNE
ARIANE 5 R/B 3.9 18:00:10 33° W 18:00:10 33° W 18:04:07 10° NNW
ATLAS CENTAUR R/B 3.8 17:58:47 10° NNW 18:00:46 14° N 18:01:22 13° NNE
Cosmos 1455 Rocket 4.3 18:08:48 38° N 18:08:48 38° N 18:11:39 10° N
Cosmos 1844 Rocket 3.7 18:02:43 10° WSW 18:08:04 44° NW 18:13:27 10° NNE
Spot 2 Rocket 4.3 18:07:55 42° WSW 18:08:10 42° W 18:12:57 10° NNW
Lacrosse 5 rocket 2.9 18:16:46 10° WNW 18:19:37 36° NW 18:19:37 36° NW
Cosmos 1833 Rocket 3.3 18:21:10 10° NW 18:26:05 48° W 18:26:05 48° W
Cosmos 407 Rocket 4.5 18:26:04 10° NNW 18:29:45 41° N 18:29:45 41° N
Cosmos 2251 Rocket 4.2 18:28:04 10° NNW 18:32:20 51° WNW 18:32:20 51° WNW
USA 234 3.2 18:28:10 10° ENE 18:34:44 81° NNW 18:41:18 10° WSW
Terra 3.1 18:40:19 39° NW 18:40:19 39° NW 18:43:33 10° NNW
MOS 1-B Rocket 4.5 18:33:13 10° NNE 18:39:16 65° ENE 18:39:16 65° ENE
NOSS 3-4 (A) 4.0 19:06:43 55° NNE 19:06:43 55° NNE 19:12:05 10° NE
NOSS 3-4 (C) 4.0 19:06:53 54° NNE 19:06:53 54° NNE 19:12:11 10° NE
COSMOS 2455 4.4 19:09:36 25° NE 19:09:36 25° NE 19:12:02 10° NE
Cosmos 2082 Rocket 3.4 19:01:00 10° NW 19:04:43 35° WNW 19:04:43 35° WNW
Cosmos 1943 Rocket 4.5 19:12:44 14° NE 19:12:44 14° NE 19:13:35 10° NE
CZ-4C R/B 4.1 19:31:41 22° NE 19:31:41 22° NE 19:33:53 10° NE
ATLAS 2AS CENTAUR R/B 3.3 19:24:47 30° WSW 19:28:58 64° NW 19:36:41 10° NE
Cosmos 2369 Rocket 4.4 19:35:44 15° NE 19:35:44 15° NE 19:36:56 10° NE
Cosmos 2278 Rocket 3.4 19:40:44 40° NNW 19:40:44 40° NNW 19:45:17 10° NNE
ATLAS 3B R/B 4.3 19:39:12 10° WNW 19:42:49 22° W 19:42:49 22° W
NOSS 3-1 (C) 4.2 19:46:40 10° NW 19:53:36 61° NNE 19:54:08 59° NE
Cosmos 2227 Rocket 4.4 20:12:56 10° NNW 20:17:05 20° NNE 20:20:03 14° ENE
USA 234 3.9 20:11:07 10° ENE 20:19:22 46° NW 20:24:00 10° W
SL-16 R/B 3.7 20:42:07 35° ENE 20:42:30 35° ENE 20:47:59 10° N
USA 229 DEB 4.1 20:44:14 10° NW 20:49:59 61° NW 20:49:59 61° NW
USA 229 4.1 20:44:20 10° NW 20:50:06 61° NW 20:50:06 61° NW
Cosmos 1943 Rocket 3.4 20:54:15 39° N 20:54:15 39° N 20:57:50 10° NNE
COSMOS 2455 3.9 20:52:44 40° NNW 20:52:44 40° NNW 20:58:02 10° NE
CZ-2D R/B 4.2 20:55:21 10° NE 20:58:07 19° ENE 20:58:07 19° ENE
NOSS 3-1 (A) 4.0 20:56:20 10° NW 21:02:59 76° N 21:02:59 76° N
Cosmos 2297 Rocket 3.5 20:59:46 10° NNW 21:04:58 35° NE 21:05:21 35° NE
Resurs 1-4 Rocket 3.9 21:09:34 10° NE 21:12:46 24° ENE 21:12:46 24° ENE
Cosmos 2369 Rocket 3.2 21:17:31 43° N 21:17:31 43° N 21:21:28 10° NNE
CZ-4C R/B 3.2 21:16:50 44° NNW 21:16:50 44° NNW 21:22:59 10° NE
ATLAS 2AS CENTAUR R/B 4.1 21:14:00 10° WNW 21:21:20 39° N 21:28:21 10° ENE
SL-8 Rocket 4.4 21:36:46 10° N 21:42:58 56° ENE 21:43:01 56° ENE
Cosmos 2218 Rocket 4.4 21:47:42 10° N 21:54:01 57° ENE 21:54:37 55° E
Cosmos 2366 rocket 4.4 21:50:31 10° N 21:56:43 57° ENE 21:57:18 55° E
USA 234 3.2 21:53:49 10° ESE 22:00:22 79° NNE 22:03:10 37° WNW
Cosmos 2227 Rocket 2.6 21:56:41 10° NNW 22:01:46 59° NNE 22:01:46 59° NNE
Lacrosse 5 4.3 22:14:23 13° ESE 22:14:23 13° ESE 22:15:51 10° E
Cosmos 2219 3.9 22:10:09 10° NNW 22:14:03 45° NNW 22:14:03 45° NNW
ADEOS II 3.2 22:11:29 10° NNE 22:16:21 36° E 22:16:36 36° ESE
CZ-3B R/B 4.4 22:19:30 15° E 22:19:30 15° E 22:21:11 10° ENE
Cosmos 2181 Rocket 4.0 22:18:15 67° ESE 22:18:29 67° E 22:24:38 10° NNE
CZ-4B R/B 4.4 22:16:12 10° NNE 22:20:56 41° E 22:20:56 41° E
Cosmos 1302 Rocket 4.4 22:24:00 60° NNE 22:24:00 60° NNE 22:28:18 10° NNE
SL-16 R/B 3.0 22:27:14 48° WNW 22:27:14 48° WNW 22:31:59 10° NNW
Cosmos 1959 Rocket 4.3 22:19:53 10° N 22:26:03 86° ENE 22:26:03 86° ENE
Cosmos 2341 Rocket 4.3 22:22:47 10° NNW 22:28:11 56° WNW 22:28:11 56° WNW
SL-08 R/B 4.3 22:29:15 40° E 22:29:54 43° ENE 22:34:17 10° N
Cosmos 1633 Rocket 4.1 22:31:04 10° N 22:34:55 43° ENE 22:34:55 43° ENE
Cosmos 1943 Rocket 4.0 22:35:46 18° NW 22:37:09 20° NNW 22:41:14 10° NNE
ARIANE 5 R/B 4.1 22:35:04 10° NNE 22:39:32 29° E 22:41:12 24° SE
CZ-2D R/B 2.2 22:34:36 10° NNE 22:39:26 68° NNW 22:39:26 68° NNW
Cosmos 1666 Rocket 4.4 22:35:55 10° N 22:39:36 51° NNE 22:39:36 51° NNE
IRS-1D 3.9 22:35:13 10° NNE 22:40:32 61° ESE 22:40:51 59° ESE
ATLAS 5 CENTAUR R/B 2.2 22:44:53 55° NE 22:44:53 55° NE 22:48:45 10° NE
AQUA 4.1 22:40:18 10° NNE 22:44:23 65° NNE 22:44:23 65° NNE
NPP 3.6 22:40:17 10° NNE 22:45:29 77° NW 22:45:29 77° NW
Cosmos 1151 Rocket 4.5 22:46:55 30° ESE 22:47:25 31° E 22:51:17 10° NNE
Cosmos 1606 4.2 22:49:10 36° NE 22:49:10 36° NE 22:51:48 10° NNE
SL-19 R/B 4.3 22:49:20 65° WNW 22:49:20 65° WNW 22:54:24 10° NNW
Cosmos 2297 Rocket 3.1 22:43:46 10° NW 22:47:05 35° NW 22:47:05 35° NW
CBERS-1 4.1 22:47:51 10° NNE 22:52:59 70° ESE 22:53:15 69° SE
Cosmos 2082 3.7 22:47:49 10° NNW 22:53:34 81° ENE 22:57:45 19° SE
Resurs 1-4 Rocket 2.3 22:49:00 10° N 22:53:50 56° NW 22:53:50 56° NW
Cosmos 2369 Rocket 4.0 22:59:19 18° NW 23:01:02 20° NNW 23:05:12 10° NNE
Genesis I 4.2 23:03:13 44° NNE 23:03:13 44° NNE 23:06:00 10° NE
Meteor 1-25 Rocket 4.5 22:59:00 10° N 23:04:52 70° ENE 23:08:38 22° SSE
NOSS 2-1 (E) 4.4 23:05:53 38° N 23:05:53 38° N 23:08:55 10° NE
Gbstr 26 Del rocket 4.4 23:02:21 41° W 23:05:40 83° S 23:13:21 10° E
USA 267 3.5 22:59:34 10° ENE 23:06:00 55° SE 23:07:37 45° S
Cosmos 1933 4.0 23:06:33 49° E 23:06:37 49° E 23:10:35 10° NNE
CZ-4C R/B 4.0 23:02:00 14° WNW 23:06:39 33° N 23:13:05 10° ENE
NOSS 2-2 (E) 4.3 23:02:55 10° NW 23:08:16 83° SW 23:15:45 10° SE
Cosmos 1697 Rocket 3.5 23:09:02 34° SSE 23:10:53 45° ESE 23:16:13 10° NE
IRS-P3 4.3 23:06:10 10° NNE 23:11:31 69° ESE 23:12:55 48° SSE
OceanSat 1 rocket 4.5 23:08:42 10° NNE 23:13:32 79° WNW 23:13:38 79° W
SJ 16-02 3.5 23:09:53 10° N 23:13:41 27° NE 23:17:27 10° ESE
ATLAS 2AS CENTAUR R/B 4.0 23:06:44 10° NW 23:14:07 43° NNE 23:21:02 10° E
ASTEX 1 4.4 23:09:27 10° NNE 23:14:15 44° E 23:17:25 20° SSE
Cosmos 1980 Rocket 3.8 23:11:43 16° SSE 23:15:09 29° ESE 23:19:56 10° NE
NOSS 2-2 (D) 4.3 23:11:26 10° NW 23:16:41 85° SW 23:24:01 10° SE
Cosmos 2263 Rocket 3.3 23:14:37 10° NNW 23:20:02 45° NE 23:25:28 10° ESE
Cosmos 405 Rocket 4.3 23:17:58 10° NNW 23:19:57 27° NNW 23:19:57 27° NNW
Cosmos 1821 Rocket 3.9 23:17:09 10° NNW 23:23:32 84° W 23:27:22 25° S
H-2A R/B 3.3 23:20:10 10° SE 23:24:17 42° ENE 23:28:31 10° N
ATLAS CENTAUR R/B 4.2 23:08:51 10° W 23:25:40 67° N 23:31:34 10° ENE
Cosmos 1818 3.5 23:24:54 58° WSW 23:25:54 74° NW 23:31:24 10° NE
Cosmos 2221 4.4 23:29:14 19° NW 23:29:14 19° NW 23:31:24 10° NNW
SL-8 R/B 4.1 23:30:03 47° SSE 23:30:03 47° SSE 23:34:09 10° ESE
SL-24 R/B 4.3 23:30:16 42° S 23:31:54 82° WSW 23:37:17 10° NNW
Cosmos 1602 3.9 23:28:24 10° N 23:32:14 69° ENE 23:33:00 52° SE
ERS-2 4.3 23:29:30 10° ESE 23:32:39 27° ENE 23:35:48 10° N
Cosmos 1934 Rocket 4.0 23:32:45 10° N 23:38:51 79° E 23:44:55 10° SSE
Cosmos 1470 Rocket 3.4 23:35:39 10° NNW 23:40:05 78° W 23:41:16 48° S
USA 307 4.0 23:40:15 31° SSE 23:40:49 32° SE 23:44:38 10° E
ADEOS Rocket 4.2 23:37:19 10° SE 23:43:38 46° ENE 23:49:23 10° N
USA 234 3.3 23:37:18 10° SE 23:43:39 53° SW 23:50:02 10° WNW
USA 308 3.9 23:43:03 31° SSE 23:43:44 33° SE 23:47:35 10° E
Cosmos 2227 Rocket 3.6 23:41:14 10° NW 23:43:30 21° WNW 23:43:30 21° WNW
Cosmos 1777 Rocket 4.0 23:43:00 10° NNW 23:48:09 57° WSW 23:52:44 13° S
Cosmos 1500 4.3 23:45:52 10° N 23:49:37 45° ENE 23:53:18 10° SSE
Cosmos 1656 3.7 23:49:11 41° WSW 23:50:56 63° NW 23:56:27 10° NNE
Cosmos 1992 Rocket 4.5 23:50:18 38° W 23:51:32 45° NW 23:56:34 10° NNE
Meteor 1-20 Rocket 4.2 23:47:00 10° NNW 23:52:19 53° W 23:54:39 31° SSW
Cosmos 1238 Rocket 4.1 23:45:43 10° N 23:52:25 87° ENE 23:58:46 10° S
Nadezhda 3 Rocket 3.9 23:49:08 29° SSW 23:52:28 75° WNW 23:58:39 10° N
Landsat 5 3.8 23:48:48 10° SSE 23:53:19 75° ENE 23:57:49 10° NNW
